FW9606 Weather Reports


time (UTC)temp
C
wind
direction
speed
KPH
gust
KPH
rain 1hr
cm
rain 24hr
cm
rain mn
cm
humidity
%
barometer
mb
20260507231552 8 188 6.4 19.3 0.00 0.20 0.00 87 1012.1
20260507230107 8 135 6.4 30.6 0.00 0.20 0.00 87 1012.0
20260507224555 8 360 3.2 11.3 0.00 0.20 0.20 87 1012.0
20260507223133 8 153 4.8 19.3 0.00 0.20 0.20 86 1012.0
20260507221554 8 0 1.6 12.9 0.00 0.20 0.20 86 1012.0
20260507220051 8 167 8.0 20.9 0.00 0.20 0.20 86 1012.0
20260507214557 8 171 6.4 24.1 0.00 0.20 0.20 86 1012.0
20260507213122 8 165 4.8 16.1 0.00 0.20 0.20 86 1011.9
20260507211548 8 134 4.8 16.1 0.00 0.20 0.20 87 1012.0
20260507210101 8 140 3.2 14.5 0.00 0.20 0.20 86 1012.0
20260507204548 9 115 1.6 16.1 0.00 0.20 0.20 85 1012.0
20260507203048 9 184 0.0 12.9 0.00 0.20 0.20 85 1011.9
20260507201604 9 0 0.0 6.4 0.00 0.20 0.20 86 1011.8
20260507200103 9 0 0.0 4.8 0.00 0.20 0.20 88 1011.7
20260507194549 9 0 0.0 6.4 0.00 0.20 0.20 88 1011.6
20260507193053 9 0 0.0 3.2 0.00 0.20 0.20 88 1011.5
20260507191548 10 0 0.0 0.0 0.00 0.20 0.20 88 1011.5
20260507190054 10 0 0.0 4.8 0.00 0.20 0.20 88 1011.5
20260507184549 10 0 0.0 1.6 0.00 0.20 0.20 88 1011.4
20260507183052 10 0 0.0 4.8 0.00 0.20 0.20 87 1011.5
20260507181548 10 133 1.6 3.2 0.00 0.20 0.20 87 1011.4
20260507180054 10 94 1.6 4.8 0.00 0.20 0.20 88 1011.3
20260507174555 10 0 0.0 8.0 0.00 0.20 0.20 86 1011.3
20260507173054 9 226 1.6 12.9 0.00 0.20 0.20 87 1011.2
20260507171600 8 0 1.6 14.5 0.00 0.20 0.20 86 1011.3
20260507170051 8 140 0.0 9.7 0.03 0.20 0.20 86 1011.4
20260507164547 8 0 0.0 17.7 0.03 0.20 0.20 85 1011.4
20260507163044 8 0 6.4 27.4 0.03 0.20 0.20 87 1011.5
20260507161601 8 123 1.6 22.5 0.03 0.20 0.20 90 1011.6
20260507160045 8 155 8.0 25.7 0.05 0.18 0.18 90 1011.7
20260507154549 8 126 3.2 25.7 0.18 0.18 0.18 89 1011.7
20260507153106 8 0 0.0 4.8 0.18 0.18 0.18 92 1011.7
20260507151558 8 121 3.2 24.1 0.18 0.18 0.18 92 1011.7
20260507150052 9 360 3.2 16.1 0.13 0.13 0.13 88 1011.9
20260507144543 11 203 14.5 24.1 0.00 0.00 0.00 77 1011.9
20260507143051 11 135 8.0 30.6 0.00 0.00 0.00 75 1011.7
20260507141551 11 140 11.3 25.7 0.00 0.00 0.00 75 1011.8
20260507140047 11 170 9.7 22.5 0.00 0.00 0.00 75 1011.9
20260507134552 11 172 9.7 35.4 0.00 0.00 0.00 74 1012.1
20260507133047 12 124 12.9 29.0 0.00 0.00 0.00 74 1012.1
20260507131551 12 175 17.7 32.2 0.00 0.00 0.00 73 1012.1
20260507130057 12 156 8.0 27.4 0.00 0.00 0.00 78 1012.3
20260507124557 11 185 9.7 22.5 0.00 0.00 0.00 77 1012.4
20260507123104 11 166 17.7 27.4 0.00 0.00 0.00 77 1012.4
20260507121557 10 149 9.7 27.4 0.00 0.00 0.00 79 1012.4
20260507120048 10 187 14.5 25.7 0.00 0.00 0.00 80 1012.5
20260507114554 9 163 11.3 20.9 0.00 0.00 0.00 80 1012.6
20260507113051 10 167 12.9 24.1 0.00 0.00 0.00 80 1012.7
20260507111550 10 141 11.3 19.3 0.00 0.00 0.00 78 1012.7
20260507110049 10 165 11.3 22.5 0.00 0.00 0.00 77 1012.6
20260507104550 11 147 8.0 16.1 0.00 0.00 0.00 77 1012.7
20260507103044 11 175 6.4 19.3 0.00 0.00 0.00 75 1012.9
20260507101556 11 163 8.0 16.1 0.00 0.00 0.00 75 1012.7
20260507100055 11 142 4.8 20.9 0.00 0.00 0.00 76 1012.7
20260507094547 11 151 6.4 16.1 0.00 0.00 0.00 77 1012.8
20260507093048 11 133 4.8 14.5 0.00 0.00 0.00 75 1012.8
20260507091556 11 144 4.8 14.5 0.00 0.00 0.00 77 1012.8
20260507090048 10 185 4.8 16.1 0.00 0.00 0.00 78 1012.8
20260507084548 10 126 1.6 12.9 0.00 0.00 0.00 79 1013.0
20260507083107 9 138 4.8 12.9 0.00 0.00 0.00 80 1013.0
20260507081558 9 92 4.8 17.7 0.00 0.00 0.00 82 1013.0
20260507080047 8 167 4.8 17.7 0.00 0.00 0.00 82 1013.1
20260507074549 8 140 4.8 17.7 0.00 0.00 0.00 81 1013.0
20260507073053 7 132 3.2 12.9 0.00 0.00 0.00 82 1013.1
20260507071545 7 163 4.8 9.7 0.00 0.00 0.00 83 1013.0
20260507070047 7 149 1.6 6.4 0.00 0.00 0.00 85 1013.0
20260507064550 6 147 0.0 1.6 0.00 0.00 0.00 86 1013.1
20260507063050 6 0 0.0 4.8 0.00 0.00 0.00 85 1013.1
20260507061552 5 323 0.0 3.2 0.00 0.00 0.00 86 1013.1
20260507060057 5 0 0.0 3.2 0.00 0.00 0.00 86 1013.0
20260507054553 5 0 0.0 3.2 0.00 0.00 0.00 87 1013.0
20260507053048 5 0 0.0 3.2 0.00 0.00 0.00 86 1012.9
20260507051550 5 0 0.0 1.6 0.00 0.00 0.00 87 1013.0
20260507050058 5 0 0.0 4.8 0.00 0.00 0.00 86 1013.0
20260507044553 5 0 0.0 4.8 0.00 0.00 0.00 87 1013.1
20260507043049 5 0 1.6 6.4 0.00 0.00 0.00 88 1013.0
20260507041547 5 138 0.0 1.6 0.00 0.00 0.00 87 1013.0
20260507040046 5 28 0.0 3.2 0.00 0.00 0.00 87 1013.1
20260507034551 5 0 0.0 6.4 0.00 0.00 0.00 87 1013.1
20260507033049 5 0 1.6 6.4 0.00 0.00 0.00 87 1013.2
20260507031549 5 0 0.0 3.2 0.00 0.00 0.00 86 1013.2
20260507030047 5 0 0.0 1.6 0.00 0.00 0.00 86 1013.3
20260507024551 5 0 0.0 3.2 0.00 0.00 0.00 85 1013.4
20260507023044 5 0 0.0 3.2 0.00 0.00 0.00 84 1013.4
20260507021551 5 123 0.0 0.0 0.00 0.00 0.00 83 1013.4
20260507020104 5 0 0.0 1.6 0.00 0.00 0.00 83 1013.4
20260507014557 5 0 1.6 6.4 0.00 0.00 0.00 82 1013.6
20260507013053 6 157 3.2 6.4 0.00 0.00 0.00 82 1013.6
20260507011551 6 0 0.0 3.2 0.00 0.00 0.00 81 1013.8
20260507010050 6 0 1.6 8.0 0.00 0.00 0.00 81 1013.8
20260507004549 6 116 4.8 11.3 0.00 0.00 0.00 80 1013.9
20260507003047 6 136 3.2 8.0 0.00 0.00 0.00 81 1013.9
20260507001557 6 152 0.0 6.4 0.00 0.00 0.00 81 1014.0
20260507000053 6 109 0.0 3.2 0.00 0.00 0.00 81 1014.1
20260506234600 6 105 1.6 4.8 0.00 0.00 0.00 81 1014.1
20260506233057 6 134 3.2 11.3 0.00 0.00 0.00 81 1014.3